sat.trackr.live / text

‹ back to catalog

CENTISPACE-1 S12

NORAD 62581 · 2025-007G

PAYLOAD ACTIVE UNKNOWN

§ Identity

Operator
Country
PRC
Launch date
2025-01-13
Launch site
YSLA
Launch vehicle
Mass (kg)
RCS (m²)

External: N2YO · Heavens-Above · Gunter

§ Orbital elements

Epoch: 2026-05-25T03:31:32.100384Z

Period
104.30 min
Inclination
54.9781°
Eccentricity
0.0017454
Mean motion
13.80626057 rev/d
Perigee alt
948.9 km
Apogee alt
974.5 km
Semi-major
7,339.8 km
B*
8.1681e-5
RAAN
11.9665°
Arg perigee
82.3640°
Mean anomaly
277.9298°
Rev number
7,155

§ Raw data

CENTISPACE-1 S121 62581U 25007G   26145.14689931 -.00000054  00000+0  81681-4 0  99922 62581  54.9781  11.9665 0017454  82.3640 277.9298 13.80626057 71550

JSON: /api/v1/satellites/62581 · /tle

For live sub-satellite position, see the globe view (requires WebGL).

§ Visibility from observer

Set your observer location to see the next 7 days of passes ≥ 10°. The values pass through the URL so the page stays shareable.

No JS? Fill the form by hand. The geolocation button needs JavaScript.

§ Radio — SatNOGS DB

ModeDescriptionDownlinkUplink
FM S-band telemetry 2.262 GHz

1 transmitter · refreshed weekly from db.satnogs.org